Weather History for KCTB - May, 2014

Change the Weather History Date:

Thursday, May 15, 2014

  Actual Average Record
Temperature  
Mean Temperature 54 °F 50 °F  
Max Temperature 67 °F 62 °F 87 °F (2012)
Min Temperature 41 °F 37 °F 20 °F (1929)
Degree Days  
Heating Degree Days 11 15  
Month to date heating degree days 308 262  
Since 1 July heating degree days 8443 8082  
Cooling Degree Days 0 0  
Month to date cooling degree days 0 0  
Year to date cooling degree days 0 0  
Growing Degree Days 5 (Base 50)    
Moisture  
Dew Point 41 °F    
Average Humidity 61    
Maximum Humidity 80    
Minimum Humidity 42    
Precipitation  
Precipitation T in 0.06 in 1.36 in (1911)
Month to date precipitation 0.40 0.70  
Year to date precipitation 3.90 2.39  
Snow  
Snow 0.00 in - - ()
Snow Depth 0.00 in    
Sea Level Pressure  
Sea Level Pressure 30.12 in    
Wind  
Wind Speed 13 mph (NNW)    
Max Wind Speed 24 mph    
Max Gust Speed 29 mph    
Visibility 10 miles    
Events Rain    
T = Trace of Precipitation, MM = Missing Value Source: NWS Daily Summary

Daily Weather History Graph

Daily Weather History Graph

Search for Another Location

Airport or City:

Trip Planner

Search our weather history database for the weather conditions in past years. The results will help you decide how hot, cold, wet, or windy it might be!

Date:

Astronomy

May. 15, 2014 Rise Set
Actual Time 5:48 AM MDT 9:04 PM MDT
Civil Twilight 5:10 AM MDT 9:41 PM MDT
Nautical Twilight 4:21 AM MDT 10:31 PM MDT
Astronomical Twilight 3:18 AM MDT 11:35 PM MDT
Moon 10:15 PM MDT (5/15) 6:40 AM MDT (5/15)
Length of Visible Light 16h 31m
Length of Day
15h 15m
Full, 99% of the Moon is Illuminated
May 15
Full
May 21
Last Quarter
May 28
New
Jun 5
First Quarter
Jun 12
Full

Hourly Weather History & Observations

Time (MDT) Temp. Windchill Dew Point Humidity Pressure Visibility Wind Dir Wind Speed Gust Speed Precip Events Conditions
12:56 AM 46.9 °F - 37.9 °F 71% 30.14 in 10.0 mi West 10.4 mph - N/A   Clear
1:56 AM 46.9 °F - 37.9 °F 71% 30.13 in 10.0 mi West 6.9 mph - N/A   Clear
2:56 AM 46.9 °F - 37.9 °F 71% 30.11 in 10.0 mi WNW 12.7 mph - N/A   Clear
3:56 AM 46.0 °F 41.0 °F 37.0 °F 71% 30.11 in 10.0 mi West 10.4 mph - N/A   Clear
4:56 AM 44.1 °F 40.8 °F 36.0 °F 73% 30.10 in 10.0 mi WNW 5.8 mph - N/A   Clear
5:56 AM 45.0 °F 43.5 °F 37.0 °F 74% 30.10 in 10.0 mi Variable 3.5 mph - N/A   Partly Cloudy
6:56 AM 48.0 °F - 39.0 °F 71% 30.09 in 10.0 mi Calm Calm - N/A   Partly Cloudy
7:56 AM 52.0 °F - 41.0 °F 66% 30.10 in 10.0 mi NNW 10.4 mph - N/A   Overcast
8:56 AM 61.0 °F - 43.0 °F 52% 30.10 in 10.0 mi North 20.7 mph - N/A   Clear
9:56 AM 59.0 °F - 41.0 °F 51% 30.12 in 10.0 mi North 21.9 mph - N/A   Clear
10:56 AM 61.0 °F - 41.0 °F 48% 30.13 in 10.0 mi North 18.4 mph - N/A   Clear
11:56 AM 63.0 °F - 42.1 °F 46% 30.12 in 10.0 mi North 13.8 mph - N/A   Clear
12:56 PM 64.0 °F - 43.0 °F 46% 30.12 in 10.0 mi NNW 11.5 mph 23.0 mph N/A   Partly Cloudy
1:56 PM 64.9 °F - 43.0 °F 45% 30.10 in 10.0 mi North 17.3 mph 25.3 mph N/A   Clear
2:56 PM 66.0 °F - 43.0 °F 43% 30.09 in 10.0 mi North 13.8 mph - N/A   Partly Cloudy
3:56 PM 64.9 °F - 43.0 °F 45% 30.08 in 10.0 mi North 16.1 mph - N/A   Clear
4:56 PM 63.0 °F - 42.1 °F 46% 30.09 in 10.0 mi NNE 19.6 mph 28.8 mph N/A   Mostly Cloudy
5:56 PM 60.1 °F - 39.9 °F 47% 30.11 in 10.0 mi North 21.9 mph - N/A   Mostly Cloudy
6:56 PM 57.9 °F - 37.0 °F 46% 30.13 in 10.0 mi NNE 18.4 mph - N/A   Overcast
7:56 PM 55.9 °F - 39.0 °F 53% 30.15 in 10.0 mi North 16.1 mph - N/A   Overcast
8:56 PM 53.1 °F - 42.1 °F 66% 30.14 in 10.0 mi NNW 10.4 mph - N/A   Overcast
9:56 PM 50.0 °F - 44.1 °F 80% 30.17 in 10.0 mi WNW 5.8 mph - 0.00 in Rain Light Rain
10:56 PM 50.0 °F - 45.0 °F 83% 30.18 in 10.0 mi WNW 9.2 mph - 0.00 in   Overcast
11:56 PM 50.0 °F - 44.1 °F 80% 30.17 in 10.0 mi WNW 8.1 mph - N/A   Overcast